H1 CPF 2 NER 2024 6 30 9 182 01 glonass140 H2 1903001 9140 44299 2024 6 30 0 0 0 2024 7 3 23 45 0 900 1 1 0 0 0 1 H9 10 0 60491 0.00000 0 14352593.344 -20038656.683 6579400.034 10 0 60491 900.00000 0 13800619.623 -19204140.246 9579605.948 10 0 60491 1800.00000 0 13173691.299 -18001525.744 12393874.769 10 0 60491 2700.00000 0 12528994.613 -16443082.323 14967694.369 10 0 60491 3600.00000 0 11921519.432 -14553802.001 17251261.163 10 0 60491 4500.00000 0 11401608.851 -12370561.527 19200432.565 10 0 60491 5400.00000 0 11012723.313 -9940800.433 20777567.166 10 0 60491 6300.00000 0 10789512.348 -7320770.397 21952237.845 10 0 60491 7200.00000 0 10756273.791 -4573428.384 22701805.538 10 0 60491 8100.00000 0 10925864.020 -1766060.187 23011844.143 10 0 60491 9000.00000 0 11299103.868 1032268.359 22876409.648 10 0 60491 9900.00000 0 11864704.483 3753328.508 22298149.235 10 0 60491 10800.00000 0 12599715.972 6332307.600 21288248.834 10 0 60491 11700.00000 0 13470480.351 8710245.109 19866220.145 10 0 60491 12600.00000 0 14434049.560 10836226.703 18059530.810 10 0 60491 13500.00000 0 15440010.272 12669247.043 15903084.012 10 0 60491 14400.00000 0 16432640.273 14179665.349 13438556.342 10 0 60491 15300.00000 0 17353307.309 15350194.156 10713605.341 10 0 60491 16200.00000 0 18143010.865 16176380.616 7780960.617 10 0 60491 17100.00000 0 18744960.928 16666560.457 4697414.749 10 0 60491 18000.00000 0 19107085.665 16841286.375 1522732.442 10 0 60491 18900.00000 0 19184362.330 16732254.554 -1681501.746 10 0 60491 19800.00000 0 18940872.526 16380773.987 -4853075.227 10 0 60491 20700.00000 0 18351493.991 15835842.704 -7930355.662 10 0 60491 21600.00000 0 17403155.962 15151911.752 -10853491.993 10 0 60491 22500.00000 0 16095603.231 14386431.270 -13565584.385 10 0 60491 23400.00000 0 14441634.533 13597282.528 -16013799.569 10 0 60491 24300.00000 0 12466803.061 12840204.892 -18150409.094 10 0 60491 25200.00000 0 10208589.555 12166327.169 -19933729.404 10 0 60491 26100.00000 0 7715080.817 11619908.507 -21328944.625 10 0 60491 27000.00000 0 5043207.488 11236385.279 -22308795.245 10 0 60491 27900.00000 0 2256613.634 11040807.450 -22854118.641 10 0 60491 28800.00000 0 -576753.573 11046731.381 -22954230.309 10 0 60491 29700.00000 0 -3387233.879 11255616.628 -22607137.920 10 0 60491 30600.00000 0 -6106115.794 11656752.790 -21819583.654 10 0 60491 31500.00000 0 -8668259.157 12227719.855 -20606913.712 10 0 60491 32400.00000 0 -11014568.958 12935362.665 -18992777.433 10 0 60491 33300.00000 0 -13094217.202 13737238.132 -17008661.867 10 0 60491 34200.00000 0 -14866520.150 14583473.546 -14693271.085 10 0 60491 35100.00000 0 -16302392.983 15418956.701 -12091762.744 10 0 60491 36000.00000 0 -17385321.874 16185764.327 -9254857.356 10 0 60491 36900.00000 0 -18111813.963 16825725.095 -6237838.522 10 0 60491 37800.00000 0 -18491308.078 17283007.805 -3099464.580 10 0 60491 38700.00000 0 -18545551.917 17506624.394 99186.018 10 0 60491 39600.00000 0 -18307474.139 17452741.253 3295911.959 10 0 60491 40500.00000 0 -17819601.116 17086700.770 6428604.643 10 0 60491 41400.00000 0 -17132087.220 16384667.655 9436457.653 10 0 60491 42300.00000 0 -16300443.475 15334830.797 12261146.086 10 0 60491 43200.00000 0 -15383061.733 13938110.437 14847952.804 10 0 60491 44100.00000 0 -14438639.447 12208341.437 17146820.148 10 0 60491 45000.00000 0 -13523613.714 10171925.427 19113307.484 10 0 60491 45900.00000 0 -12689712.124 7866966.676 20709437.249 10 0 60491 46800.00000 0 -11981722.447 5341927.770 21904414.575 10 0 60491 47700.00000 0 -11435573.571 2653860.739 22675208.109 10 0 60491 48600.00000 0 -11076806.759 -133713.627 23006982.356 10 0 60491 49500.00000 0 -10919499.896 -2953191.489 22893374.508 10 0 60491 50400.00000 0 -10965688.636 -5735439.339 22336611.410 10 0 60491 51300.00000 0 -11205307.847 -8412411.129 21347464.965 10 0 60491 52200.00000 0 -11616655.477 -10919722.744 19945046.916 10 0 60491 53100.00000 0 -12167359.528 -13199079.052 18156446.520 10 0 60491 54000.00000 0 -12815808.200 -15200454.690 16016217.317 10 0 60491 54900.00000 0 -13512984.138 -16883939.515 13565721.655 10 0 60491 55800.00000 0 -14204626.881 -18221173.051 10852344.312 10 0 60491 56700.00000 0 -14833633.729 -19196308.809 7928588.952 10 0 60491 57600.00000 0 -15342598.962 -19806468.483 4851073.536 10 0 60491 58500.00000 0 -15676385.029 -20061666.860 1679443.047 10 0 60491 59400.00000 0 -15784617.475 -19984210.218 -1524780.258 10 0 60491 60300.00000 0 -15623997.939 -19607592.927 -4699387.229 10 0 60491 61200.00000 0 -15160336.669 -18974938.095 -7782689.818 10 0 60491 62100.00000 0 -14370217.330 -18137047.460 -10714722.983 10 0 60491 63000.00000 0 -13242221.990 -17150142.434 -13438416.659 10 0 60491 63900.00000 0 -11777662.495 -16073391.540 -15900714.250 10 0 60491 64800.00000 0 -9990785.120 -14966328.752 -18053615.105 10 0 60491 65700.00000 0 -7908437.572 -13886272.134 -19855119.818 10 0 60491 66600.00000 0 -5569210.208 -12885852.300 -21270059.103 10 0 60491 67500.00000 0 -3022085.585 -12010755.726 -22270789.382 10 0 60491 68400.00000 0 -324651.351 -11297778.837 -22837740.829 10 0 60491 69300.00000 0 2459049.897 -10773275.676 -22959806.641 10 0 60491 70200.00000 0 5260944.727 -10452065.194 -22634565.455 10 0 60491 71100.00000 0 8011526.140 -10336844.611 -21868332.209 10 0 60491 72000.00000 0 10642515.711 -10418133.755 -20676036.160 10 0 60491 72900.00000 0 13089479.446 -10674752.579 -19080928.300 10 0 60491 73800.00000 0 15294288.069 -11074811.238 -17114123.862 10 0 60491 74700.00000 0 17207318.910 -11577170.226 -14813989.004 10 0 60491 75600.00000 0 18789307.521 -12133307.850 -12225384.060 10 0 60491 76500.00000 0 20012772.032 -12689514.959 -9398778.666 10 0 60491 77400.00000 0 20862951.413 -13189322.797 -6389256.885 10 0 60491 78300.00000 0 21338219.566 -13576059.956 -3255432.718 10 0 60491 79200.00000 0 21449959.522 -13795429.083 -58298.199 10 0 60491 80100.00000 0 21221904.967 -13797993.278 3139972.312 10 0 60491 81000.00000 0 20688978.941 -13541466.344 6277237.368 10 0 60491 81900.00000 0 19895680.683 -12992709.690 9292598.758 10 0 60491 82800.00000 0 18894090.471 -12129351.505 12127582.881 10 0 60491 83700.00000 0 17741578.013 -10940960.118 14727270.149 10 0 60491 84600.00000 0 16498311.854 -9429722.504 17041350.852 10 0 60491 85500.00000 0 15224675.007 -7610599.826 19025087.806 10 0 60492 0.00000 0 13978695.319 -5510953.943 20640168.145 10 0 60492 900.00000 0 12813597.029 -3169659.397 21855430.039 10 0 60492 1800.00000 0 11775576.630 -635740.459 22647449.719 10 0 60492 2700.00000 0 10901892.461 2033414.433 23000981.911 10 0 60492 3600.00000 0 10219348.018 4774185.043 22909244.250 10 0 60492 4500.00000 0 9743230.223 7519112.564 22374042.131 10 0 60492 5400.00000 0 9476745.840 10199456.066 21405732.014 10 0 60492 6300.00000 0 9410978.681 12747808.203 20023023.992 10 0 60492 7200.00000 0 9525368.936 15100663.636 18252627.030 10 0 60492 8100.00000 0 9788694.561 17200835.497 16128742.907 10 0 60492 9000.00000 0 10160513.992 18999621.092 13692417.456 10 0 60492 9900.00000 0 10593010.375 20458627.911 10990760.272 10 0 60492 10800.00000 0 11033160.645 21551184.633 8076046.538 10 0 60492 11700.00000 0 11425139.060 22263278.474 5004716.972 10 0 60492 12600.00000 0 11712854.508 22593979.567 1836294.151 10 0 60492 13500.00000 0 11842514.901 22555334.110 -1367764.646 10 0 60492 14400.00000 0 11765110.209 22171730.101 -4545256.318 10 0 60492 15300.00000 0 11438708.596 21478761.546 -7634439.584 10 0 60492 16200.00000 0 10830467.456 20521638.215 -10575237.685 10 0 60492 17100.00000 0 9918272.770 19353207.301 -13310412.349 10 0 60492 18000.00000 0 8691935.558 18031669.991 -15786685.421 10 0 60492 18900.00000 0 7153892.696 16618089.050 -17955785.553 10 0 60492 19800.00000 0 5319380.204 15173792.574 -19775398.744 10 0 60492 20700.00000 0 3216069.408 13757783.676 -21210003.367 10 0 60492 21600.00000 0 883179.122 12424265.720 -22231572.648 10 0 60492 22500.00000 0 -1629900.792 11220387.859 -22820130.257 10 0 60492 23400.00000 0 -4265418.273 10184306.369 -22964147.578 10 0 60492 24300.00000 0 -6959425.719 9343643.813 -22660774.450 10 0 60492 25200.00000 0 -9644214.595 8714411.135 -21915898.495 10 0 60492 26100.00000 0 -12250916.534 8300438.074 -20744031.589 10 0 60492 27000.00000 0 -14712162.339 8093335.581 -19168025.563 10 0 60492 27900.00000 0 -16964687.706 8072991.205 -17218622.626 10 0 60492 28800.00000 0 -18951776.522 8208575.623 -14933849.486 10 0 60492 29700.00000 0 -20625439.506 8460016.622 -12358267.338 10 0 60492 30600.00000 0 -21948237.125 8779876.855 -9542092.913 10 0 60492 31500.00000 0 -22894670.822 9115554.413 -6540208.576 10 0 60492 32400.00000 0 -23452085.031 9411711.584 -3411081.731 10 0 60492 33300.00000 0 -23621043.365 9612827.477 -215615.668 10 0 60492 34200.00000 0 -23415164.703 9665765.203 2984044.589 10 0 60492 35100.00000 0 -22860427.948 9522243.935 6125727.177 10 0 60492 36000.00000 0 -21993976.620 9141110.598 9148444.582 10 0 60492 36900.00000 0 -20862475.474 8490314.891 11993577.033 10 0 60492 37800.00000 0 -19520089.892 7548504.230 14606005.008 10 0 60492 38700.00000 0 -18026174.199 6306171.638 16935169.228 10 0 60492 39600.00000 0 -16442766.672 4766308.623 18936038.313 10 0 60492 40500.00000 0 -14831996.438 2944535.931 20569966.527 10 0 60492 41400.00000 0 -13253510.369 868706.810 21805426.426 10 0 60492 42300.00000 0 -11762026.645 -1422000.804 22618603.788 10 0 60492 43200.00000 0 -10405115.798 -3878465.886 22993844.867 10 0 60492 44100.00000 0 -9221300.171 -6443423.179 22923948.689 10 0 60492 45000.00000 0 -8238549.419 -9053605.879 22410299.781 10 0 60492 45900.00000 0 -7473233.141 -11642144.881 21462839.365 10 0 60492 46800.00000 0 -6929573.001 -14141126.927 20099875.708 10 0 60492 47700.00000 0 -6599616.241 -16484207.428 18347736.904 10 0 60492 48600.00000 0 -6463731.137 -18609171.340 16240272.019 10 0 60492 49500.00000 0 -6491603.577 -20460337.334 13818209.038 10 0 60492 50400.00000 0 -6643693.244 -21990706.439 11128380.690 10 0 60492 51300.00000 0 -6873088.818 -23163766.433 8222831.685 10 0 60492 52200.00000 0 -7127684.807 -23954877.025 5157823.231 10 0 60492 53100.00000 0 -7352588.899 -24352177.722 1992753.003 10 0 60492 54000.00000 0 -7492658.667 -24356979.859 -1210989.391 10 0 60492 54900.00000 0 -7495060.545 -23983625.533 -4391209.775 10 0 60492 55800.00000 0 -7311742.494 -23258818.398 -7486116.650 10 0 60492 56700.00000 0 -6901714.938 -22220453.471 -10435524.691 10 0 60492 57600.00000 0 -6233042.178 -20915994.290 -13182030.640 10 0 60492 58500.00000 0 -5284458.332 -19400465.048 -15672138.002 10 0 60492 59400.00000 0 -4046537.487 -17734141.755 -17857307.873 10 0 60492 60300.00000 0 -2522366.391 -15980039.408 -19694914.615 10 0 60492 61200.00000 0 -727689.037 -14201300.992 -21149086.907 10 0 60492 62100.00000 0 1309485.201 -12458598.359 -22191417.046 10 0 60492 63000.00000 0 3549795.490 -10807654.597 -22801524.006 10 0 60492 63900.00000 0 5943928.849 -9296992.474 -22967458.668 10 0 60492 64800.00000 0 8434447.587 -7966003.822 -22685942.883 10 0 60492 65700.00000 0 10957969.283 -6843421.167 -21962437.262 10 0 60492 66600.00000 0 13447608.623 -5946255.766 -20811036.132 10 0 60492 67500.00000 0 15835579.107 -5279246.310 -19254191.507 10 0 60492 68400.00000 0 18055845.745 -4834840.776 -17322271.446 10 0 60492 69300.00000 0 20046717.450 -4593711.169 -15052961.575 10 0 60492 70200.00000 0 21753270.344 -4525778.062 -12490521.802 10 0 60492 71100.00000 0 23129500.302 -4591700.128 -9684913.301 10 0 60492 72000.00000 0 24140114.532 -4744763.938 -6690813.604 10 0 60492 72900.00000 0 24761887.418 -4933092.311 -3566539.974 10 0 60492 73800.00000 0 24984524.493 -5102075.989 -372903.130 10 0 60492 74700.00000 0 24810999.364 -5196924.134 2827985.227 10 0 60492 75600.00000 0 24257350.926 -5165224.355 5973926.796 10 0 60492 76500.00000 0 23351951.071 -4959402.974 9003848.595 10 0 60492 77400.00000 0 22134275.391 -4538980.905 11858988.225 10 0 60492 78300.00000 0 20653230.155 -3872529.652 14484029.402 10 0 60492 79200.00000 0 18965107.086 -2939244.986 16828165.997 10 0 60492 80100.00000 0 17131252.593 -1730072.326 18846074.692 10 0 60492 81000.00000 0 15215549.411 -248336.866 20498778.521 10 0 60492 81900.00000 0 13281815.718 1490147.777 21754386.008 10 0 60492 82800.00000 0 11391229.544 3457496.882 22588693.135 10 0 60492 83700.00000 0 9599884.670 5614680.855 22985638.040 10 0 60492 84600.00000 0 7956578.152 7912922.489 22937601.043 10 0 60492 85500.00000 0 6500919.870 10295508.198 22445545.254 10 0 60493 0.00000 0 5261841.021 12699939.233 21518995.771 10 0 60493 900.00000 0 4256561.385 15060336.510 20175857.467 10 0 60493 1800.00000 0 3490058.632 17309997.830 18442075.866 10 0 60493 2700.00000 0 2955058.592 19384007.306 16351145.224 10 0 60493 3600.00000 0 2632548.056 21221786.958 13943473.312 10 0 60493 4500.00000 0 2492787.783 22769486.815 11265613.411 10 0 60493 5400.00000 0 2496783.543 23982114.549 8369376.989 10 0 60493 6300.00000 0 2598153.786 24825316.130 5310842.863 10 0 60493 7200.00000 0 2745315.815 25276732.896 2149280.847 10 0 60493 8100.00000 0 2883898.657 25326877.670 -1053990.086 10 0 60493 9000.00000 0 2959280.921 24979492.263 -4236787.580 10 0 60493 9900.00000 0 2919146.210 24251370.219 -7337272.680 10 0 60493 10800.00000 0 2715947.375 23171651.019 -10295154.035 10 0 60493 11700.00000 0 2309174.355 21780614.224 -13052865.690 10 0 60493 12600.00000 0 1667328.188 20128023.208 -15556694.805 10 0 60493 13500.00000 0 769515.922 18271087.348 -17757836.634 10 0 60493 14400.00000 0 -393403.008 16272127.756 -19613355.344 10 0 60493 15300.00000 0 -1818169.543 14196044.414 -21087031.133 10 0 60493 16200.00000 0 -3489006.372 12107691.053 -22150076.364 10 0 60493 17100.00000 0 -5378035.015 10069268.122 -22781706.088 10 0 60493 18000.00000 0 -7446212.913 8137843.484 -22969551.239 10 0 60493 18900.00000 0 -9644752.707 6363105.059 -22709905.948 10 0 60493 19800.00000 0 -11916965.305 4785439.786 -22007803.775 10 0 60493 20700.00000 0 -14200450.168 3434419.394 -20876921.082 10 0 60493 21600.00000 0 -16429541.370 2327756.179 -19339309.269 10 0 60493 22500.00000 0 -18537906.958 1470771.900 -17424961.058 10 0 60493 23400.00000 0 -20461192.385 856401.079 -15171219.454 10 0 60493 24300.00000 0 -22139596.834 465727.166 -12622041.253 10 0 60493 25200.00000 0 -23520274.016 269027.227 -9827130.013 10 0 60493 26100.00000 0 -24559456.374 227279.203 -6840956.208 10 0 60493 27000.00000 0 -25224213.547 294066.008 -3721684.618 10 0 60493 27900.00000 0 -25493771.515 417793.950 -530030.939 10 0 60493 28800.00000 0 -25360337.683 544129.745 2671928.971 10 0 60493 29700.00000 0 -24829398.279 618551.347 5821972.986 10 0 60493 30600.00000 0 -23919476.901 588903.411 8858945.310 10 0 60493 31500.00000 0 -22661365.833 407848.426 11723943.607 10 0 60493 32400.00000 0 -21096863.897 35109.486 14361457.492 10 0 60493 33300.00000 0 -19277075.047 -560589.986 16720436.556 10 0 60493 34200.00000 0 -17260339.994 -1399971.130 18755267.937 10 0 60493 35100.00000 0 -15109887.827 -2492094.149 20426645.583 10 0 60493 36000.00000 0 -12891305.699 -3833748.500 21702315.820 10 0 60493 36900.00000 0 -10669931.492 -5409364.049 22557686.304 10 0 60493 37800.00000 0 -8508276.944 -7191447.001 22976288.145 10 0 60493 38700.00000 0 -6463586.853 -9141522.787 22950083.664 10 0 60493 39600.00000 0 -4585634.091 -11211547.463 22479614.880 10 0 60493 40500.00000 0 -2914840.064 -13345730.049 21573990.548 10 0 60493 41400.00000 0 -1480796.917 -15482691.531 20250712.131 10 0 60493 42300.00000 0 -301251.275 -17557872.424 18535341.780 10 0 60493 43200.00000 0 618409.483 -19506090.486 16461017.961 10 0 60493 44100.00000 0 1285147.939 -21264143.766 14067826.941 10 0 60493 45000.00000 0 1717745.234 -22773351.854 11402040.967 10 0 60493 45900.00000 0 1945769.931 -23981930.273 8515236.434 10 0 60493 46800.00000 0 2008090.277 -24847099.322 5463307.680 10 0 60493 47700.00000 0 1950992.051 -25336839.063 2305394.391 10 0 60493 48600.00000 0 1825980.976 -25431216.418 -897257.533 10 0 60493 49500.00000 0 1687362.148 -25123227.737 -4082480.127 10 0 60493 50400.00000 0 1589698.789 -24419120.187 -7188389.661 10 0 60493 51300.00000 0 1585258.114 -23338177.023 -10154591.555 10 0 60493 52200.00000 0 1721553.137 -21911974.262 -12923360.005 10 0 60493 53100.00000 0 2039085.558 -20183138.619 -15440768.713 10 0 60493 54000.00000 0 2569386.712 -18203657.729 -17657749.928 10 0 60493 54900.00000 0 3333441.201 -16032812.677 -19531060.346 10 0 60493 55800.00000 0 4340561.774 -13734819.045 -21024134.192 10 0 60493 56700.00000 0 5587764.953 -11376275.066 -22107806.118 10 0 60493 57600.00000 0 7059675.773 -9023523.774 -22760889.139 10 0 60493 58500.00000 0 8728967.420 -6740039.730 -22970595.725 10 0 60493 59400.00000 0 10557318.872 -4583949.899 -22732793.379 10 0 60493 60300.00000 0 12496851.511 -2605792.544 -22052089.289 10 0 60493 61200.00000 0 14491985.199 -846607.957 -20941742.129 10 0 60493 62100.00000 0 16481636.312 663559.304 -19423402.541 10 0 60493 63000.00000 0 18401665.554 1906684.494 -17526687.336 10 0 60493 63900.00000 0 20187472.524 2877271.056 -15288595.860 10 0 60493 64800.00000 0 21776627.641 3582323.302 -12752780.261 10 0 60493 65700.00000 0 23111430.342 4040786.230 -9968684.430 10 0 60493 66600.00000 0 24141285.515 4282478.034 -6990569.233 10 0 60493 67500.00000 0 24824797.966 4346562.521 -3876443.962 10 0 60493 68400.00000 0 25131496.743 4279628.131 -686925.924 10 0 60493 69300.00000 0 25043117.088 4133456.894 2515948.489 10 0 60493 70200.00000 0 24554386.718 3962579.569 5669937.052 10 0 60493 71100.00000 0 23673284.315 3821721.968 8713804.868 10 0 60493 72000.00000 0 22420760.518 3763251.569 11588513.237 10 0 60493 72900.00000 0 20829934.391 3834733.043 14238361.012 10 0 60493 73800.00000 0 18944800.202 4076696.097 16612056.540 10 0 60493 74700.00000 0 16818499.623 4520709.640 18663700.103 10 0 60493 75600.00000 0 14511232.129 5187842.902 20353658.875 10 0 60493 76500.00000 0 12087890.868 6087577.672 21649318.895 10 0 60493 77400.00000 0 9615522.098 7217216.806 22525700.982 10 0 60493 78300.00000 0 7160712.891 8561813.477 22965930.263 10 0 60493 79200.00000 0 4787014.233 10094624.182 22961551.623 10 0 60493 80100.00000 0 2552504.776 11778067.032 22512686.064 10 0 60493 81000.00000 0 507594.387 13565146.187 21628025.649 10 0 60493 81900.00000 0 -1306843.337 15401284.344 20324667.309 10 0 60493 82800.00000 0 -2860933.833 17226488.373 18627788.448 10 0 60493 83700.00000 0 -4136800.406 18977759.531 16570169.866 10 0 60493 84600.00000 0 -5129058.759 20591649.363 14191574.090 10 0 60493 85500.00000 0 -5844787.366 22006856.050 11537989.813 10 0 60494 0.00000 0 -6302975.320 23166753.703 8660755.869 10 0 60494 900.00000 0 -6533471.051 24021750.051 5615578.714 10 0 60494 1800.00000 0 -6575475.313 24531372.324 2461465.172 10 0 60494 2700.00000 0 -6475642.359 24665995.535 -740414.944 10 0 60494 3600.00000 0 -6285868.400 24408138.078 -3927911.035 10 0 60494 4500.00000 0 -6060860.888 23753269.545 -7039097.497 10 0 60494 5400.00000 0 -5855591.430 22710095.110 -10013479.235 10 0 60494 6300.00000 0 -5722740.511 21300302.809 -12793173.119 10 0 60494 7200.00000 0 -5710242.977 19557782.617 -15324041.658 10 0 60494 8100.00000 0 -5859039.273 17527348.583 -17556756.092 10 0 60494 9000.00000 0 -6201129.014 15263016.322 -19447767.371 10 0 60494 9900.00000 0 -6758010.828 12825907.147 -20960165.225 10 0 60494 10800.00000 0 -7539576.158 10281865.956 -22064407.829 10 0 60494 11700.00000 0 -8543505.495 7698892.259 -22738907.153 10 0 60494 12600.00000 0 -9755194.184 5144491.694 -22970457.947 10 0 60494 13500.00000 0 -11148212.394 2683058.817 -22754501.538 10 0 60494 14400.00000 0 -12685281.108 373400.617 -22095218.870 10 0 60494 15300.00000 0 -14319723.871 -1733495.664 -21005450.681 10 0 60494 16200.00000 0 -15997333.726 -3596357.263 -19506446.225 10 0 60494 17100.00000 0 -17658576.916 -5185104.328 -17627445.369 10 0 60494 18000.00000 0 -19241040.434 -6481850.882 -15405102.398 10 0 60494 18900.00000 0 -20682019.945 -7481387.536 -12882763.082 10 0 60494 19800.00000 0 -21921138.599 -8191127.218 -10109609.654 10 0 60494 20700.00000 0 -22902885.745 -8630518.082 -7139691.153 10 0 60494 21600.00000 0 -23578968.118 -8829950.479 -4030859.000 10 0 60494 22500.00000 0 -23910374.068 -8829206.371 -843629.581 10 0 60494 23400.00000 0 -23869063.801 -8675518.938 2360002.827 10 0 60494 24300.00000 0 -23439214.700 -8421326.474 5517778.663 10 0 60494 25200.00000 0 -22617969.870 -8121817.369 8568386.761 10 0 60494 26100.00000 0 -21415659.249 -7832371.335 11452654.929 10 0 60494 27000.00000 0 -19855484.963 -7606005.961 14114694.092 10 0 60494 27900.00000 0 -17972685.092 -7490936.794 16502974.085 10 0 60494 28800.00000 0 -15813211.721 -7528353.827 18571310.857 10 0 60494 29700.00000 0 -13431979.072 -7750507.629 20279747.056 10 0 60494 30600.00000 0 -10890754.923 -8179184.920 21595310.328 10 0 60494 31500.00000 0 -8255782.837 -8824636.904 22492636.155 10 0 60494 32400.00000 0 -5595233.190 -9685004.627 22954444.764 10 0 60494 33300.00000 0 -2976587.541 -10746265.037 22971864.282 10 0 60494 34200.00000 0 -464063.170 -11982699.997 22544594.985 10 0 60494 35100.00000 0 1883817.340 -13357869.044 21680912.181 10 0 60494 36000.00000 0 4016412.761 -14826046.117 20397507.884 10 0 60494 36900.00000 0 5892817.313 -16334061.481 18719174.065 10 0 60494 37800.00000 0 7483306.956 -17823473.347 16678332.873 10 0 60494 38700.00000 0 8770319.149 -19232980.033 14314421.816 10 0 60494 39600.00000 0 9748926.252 -20500973.242 11673144.453 10 0 60494 40500.00000 0 10426783.426 -21568126.786 8805599.657 10 0 60494 41400.00000 0 10823553.437 -22379913.138 5767304.898 10 0 60494 42300.00000 0 10969832.412 -22888942.502 2617131.267 10 0 60494 43200.00000 0 10905621.420 -23057025.993 -583830.052 10 0 60494 44100.00000 0 10678407.939 -22856875.397 -3773448.512 10 0 60494 45000.00000 0 10340937.841 -22273366.780 -6889759.370 10 0 60494 45900.00000 0 9948771.926 -21304313.151 -9872169.809 10 0 60494 46800.00000 0 9557730.497 -19960711.784 -12662642.145 10 0 60494 47700.00000 0 9221334.521 -18266453.853 -15206830.428 10 0 60494 48600.00000 0 8988352.478 -16257506.677 -17455147.539 10 0 60494 49500.00000 0 8900557.733 -13980601.191 -19363741.185 10 0 60494 50400.00000 0 8990792.605 -11491478.287 -20895358.896 10 0 60494 51300.00000 0 9281422.388 -8852766.426 -22020084.398 10 0 60494 52200.00000 0 9783246.123 -6131578.571 -22715930.319 10 0 60494 53100.00000 0 10494911.551 -3396928.559 -22969275.043 10 0 60494 54000.00000 0 11402860.176 -717074.666 -22775134.706 10 0 60494 54900.00000 0 12481805.846 1843098.728 -22137264.619 10 0 60494 55800.00000 0 13695727.398 4224551.961 -21068087.836 10 0 60494 56700.00000 0 14999333.988 6376310.293 -19588452.099 10 0 60494 57600.00000 0 16339941.410 8257340.938 -17727219.836 10 0 60494 58500.00000 0 17659680.100 9838008.939 -15520699.375 10 0 60494 59400.00000 0 18897941.201 11101051.817 -13011928.792 10 0 60494 60300.00000 0 19993956.885 12042033.437 -10249826.900 10 0 60494 61200.00000 0 20889405.242 12669259.680 -7288228.716 10 0 60494 62100.00000 0 21530929.139 13003161.492 -4184825.176 10 0 60494 63000.00000 0 21872462.127 13075173.535 -1000028.791 10 0 60494 63900.00000 0 21877262.877 12926158.039 2204211.496 10 0 60494 64800.00000 0 21519572.296 12604442.642 5365622.145 10 0 60494 65700.00000 0 20785823.676 12163557.103 8422819.133 10 0 60494 66600.00000 0 19675355.418 11659766.161 11316500.115 10 0 60494 67500.00000 0 18200597.073 11149503.887 13990591.291 10 0 60494 68400.00000 0 16386721.593 10686818.475 16393326.976 10 0 60494 69300.00000 0 14270779.102 10320935.322 18478241.536 10 0 60494 70200.00000 0 11900348.853 10094040.664 20205055.549 10 0 60494 71100.00000 0 9331765.793 10039378.294 21540440.407 10 0 60494 72000.00000 0 6627995.327 10179738.348 22458648.033 10 0 60494 72900.00000 0 3856243.897 10526400.611 22941995.133 10 0 60494 73800.00000 0 1085403.366 11078575.785 22981193.998 10 0 60494 74700.00000 0 -1616566.388 11823367.588 22575524.607 10 0 60494 75600.00000 0 -4185210.074 12736257.127 21732845.419 10 0 60494 76500.00000 0 -6562000.226 13782089.650 20469442.884 10 0 60494 77400.00000 0 -8696512.579 14916523.136 18809722.359 10 0 60494 78300.00000 0 -10548265.197 16087879.267 16785745.684 10 0 60494 79200.00000 0 -12088146.486 17239320.675 14436623.265 10 0 60494 80100.00000 0 -13299373.800 18311264.602 11807771.115 10 0 60494 81000.00000 0 -14177943.435 19243933.088 8950045.769 10 0 60494 81900.00000 0 -14732553.539 19979933.587 5918772.395 10 0 60494 82800.00000 0 -14984003.153 20466762.110 2772683.724 10 0 60494 83700.00000 0 -14964092.367 20659123.624 -427210.603 10 0 60494 84600.00000 0 -14714069.448 20520971.476 -3618802.978 10 0 60494 85500.00000 0 -14282690.015 20027178.848 -6740092.370 99